Maersk Windhoek — 3FWJ3 — position and weather

sailwx.info

Track history (hours):
 
Tides and Currents Weather Stations Pressure Air Temp Water Temp Dewpoint Dewpoint Depression Visibility Wind Speed Wind Dir Waves Ship Positions

Maersk Windhoek

Last reported at 2015-Jul-04 15:24 UTC. Time now 2015-Jul-05 06:07 UTC.
Position N 27°06' W 014°26'.

Length 172 m; draft 9.5 m.

Type: Ship (hazmat cat A). MMSI: 370431000.

Date/timePositionNaut miles runAvg speedWind from/ knotsBaromVisibWave heightAir tempDewpointWater temp
2015-Jul-04 15:24N 27°06' W 014°26'1416.7
2015-Jul-04 14:33N 27°16' W 014°16'1716.9
2015-Jul-04 13:33N 27°30' W 014°04'1717.2
2015-Jul-04 12:33N 27°43' W 013°52'1717.2
2015-Jul-04 11:33N 27°56' W 013°39'1716.8
2015-Jul-04 10:33N 28°10' W 013°29'1917.2
2015-Jul-04 09:29N 28°26' W 013°18'1617.5
2015-Jul-04 08:33N 28°39' W 013°08'3817.9
2015-Jul-04 06:27N 29°11' W 012°44'6516.7
2015-Jul-04 02:31N 30°06' W 012°04'1617.1
2015-Jul-04 01:33N 30°20' W 011°54'3417.2
2015-Jul-03 23:34N 30°49' W 011°32'1917.0
2015-Jul-03 22:26N 31°05' W 011°20'4816.6
2015-Jul-03 19:33N 31°46' W 010°50'2216.8
2015-Jul-03 18:13N 32°05' W 010°36'1916.9
2015-Jul-03 17:05N 32°21' W 010°24'916.8
2015-Jul-03 16:32N 32°29' W 010°18'1716.8
2015-Jul-03 15:33N 32°43' W 010°07'1616.5
2015-Jul-03 14:33N 32°55' W 009°55'3817.2
2015-Jul-03 12:20N 33°22' W 009°23'13116.7
2015-Jul-03 04:33N 34°54' W 007°31'1716.4
2015-Jul-03 03:30N 35°06' W 007°16'1616.4
2015-Jul-03 02:33N 35°17' W 007°02'1616.4
2015-Jul-03 01:33N 35°29' W 006°48'72 4.4
2015-Jul-02 09:09N 35°59' W 005°28'610.2
2015-Jul-02 08:33N 36°05' W 005°24'5 1.4
2015-Jul-02 05:05N 36°09' W 005°26'0 0.0
2015-Jul-02 04:26N 36°09' W 005°26'0 0.0
2015-Jul-01 19:20N 36°09' W 005°26'0 0.0
2015-Jul-01 18:32N 36°09' W 005°26'0 0.0
2015-Jul-01 17:32N 36°09' W 005°26'0 0.0
2015-Jul-01 16:29N 36°09' W 005°26'0 0.0
2015-Jul-01 15:32N 36°09' W 005°26'0 0.0
2015-Jul-01 14:32N 36°09' W 005°26'0 0.0
2015-Jul-01 13:32N 36°09' W 005°26'0 0.0
2015-Jul-01 12:32N 36°09' W 005°26'0 0.0
2015-Jul-01 05:32N 36°09' W 005°26'0 0.0
2015-Jul-01 04:29N 36°09' W 005°26'3 3.0
2015-Jul-01 03:34N 36°07' W 005°23'6 5.5
2015-Jul-01 02:34N 36°02' W 005°21'5 5.3
2015-Jul-01 01:33N 35°58' W 005°25'6 5.4
2015-Jul-01 00:31N 35°54' W 005°30'9 0.5
2015-Jun-30 04:23N 35°54' W 005°41'29 1.2
2015-Jun-29 04:27N 36°04' W 006°15'0 0.0
2015-Jun-29 03:30N 36°04' W 006°15'0 0.0
2015-Jun-29 02:12N 36°04' W 006°15'0 0.0
2015-Jun-28 22:30N 36°04' W 006°15'0 0.0
2015-Jun-28 18:33N 36°04' W 006°15'0 0.0
2015-Jun-28 17:09N 36°04' W 006°15'0 0.0
2015-Jun-28 15:12N 36°04' W 006°15'0 0.0
2015-Jun-28 14:27N 36°04' W 006°15'0 0.0
2015-Jun-28 13:30N 36°04' W 006°15'0 0.0
2015-Jun-28 12:30N 36°04' W 006°15'0 0.1
2015-Jun-28 11:03N 36°04' W 006°15'0 0.0
2015-Jun-28 09:15N 36°04' W 006°15'0 0.1
2015-Jun-28 08:30N 36°04' W 006°15'  
2015-Jun-25 16:33N 34°35' W 007°51'7 7.4
2015-Jun-25 15:33N 34°30' W 007°58'  
Track history (hours):
 
Tides and Currents Weather Stations Pressure Air Temp Water Temp Dewpoint Dewpoint Depression Visibility Wind Speed Wind Dir Waves Ship Positions

Maersk Windhoek

Last reported at 2015-Jul-04 15:24 UTC. Time now 2015-Jul-05 06:07 UTC.
Position N 27°06' W 014°26'.

Length 172 m; draft 9.5 m.

Type: Ship (hazmat cat A). MMSI: 370431000.

Date/timePositionNaut miles runAvg speedWind from/ knotsBaromVisibWave heightAir tempDewpointWater temp
2015-Jul-04 15:24N 27°06' W 014°26'1416.7
2015-Jul-04 14:33N 27°16' W 014°16'1716.9
2015-Jul-04 13:33N 27°30' W 014°04'1717.2
2015-Jul-04 12:33N 27°43' W 013°52'1717.2
2015-Jul-04 11:33N 27°56' W 013°39'1716.8
2015-Jul-04 10:33N 28°10' W 013°29'1917.2
2015-Jul-04 09:29N 28°26' W 013°18'1617.5
2015-Jul-04 08:33N 28°39' W 013°08'3817.9
2015-Jul-04 06:27N 29°11' W 012°44'6516.7
2015-Jul-04 02:31N 30°06' W 012°04'1617.1
2015-Jul-04 01:33N 30°20' W 011°54'3417.2
2015-Jul-03 23:34N 30°49' W 011°32'1917.0
2015-Jul-03 22:26N 31°05' W 011°20'4816.6
2015-Jul-03 19:33N 31°46' W 010°50'2216.8
2015-Jul-03 18:13N 32°05' W 010°36'1916.9
2015-Jul-03 17:05N 32°21' W 010°24'916.8
2015-Jul-03 16:32N 32°29' W 010°18'1716.8
2015-Jul-03 15:33N 32°43' W 010°07'1616.5
2015-Jul-03 14:33N 32°55' W 009°55'3817.2
2015-Jul-03 12:20N 33°22' W 009°23'13116.7
2015-Jul-03 04:33N 34°54' W 007°31'1716.4
2015-Jul-03 03:30N 35°06' W 007°16'1616.4
2015-Jul-03 02:33N 35°17' W 007°02'1616.4
2015-Jul-03 01:33N 35°29' W 006°48'72 4.4
2015-Jul-02 09:09N 35°59' W 005°28'610.2
2015-Jul-02 08:33N 36°05' W 005°24'5 1.4
2015-Jul-02 05:05N 36°09' W 005°26'0 0.0
2015-Jul-02 04:26N 36°09' W 005°26'0 0.0
2015-Jul-01 19:20N 36°09' W 005°26'0 0.0
2015-Jul-01 18:32N 36°09' W 005°26'0 0.0
2015-Jul-01 17:32N 36°09' W 005°26'0 0.0
2015-Jul-01 16:29N 36°09' W 005°26'0 0.0
2015-Jul-01 15:32N 36°09' W 005°26'0 0.0
2015-Jul-01 14:32N 36°09' W 005°26'0 0.0
2015-Jul-01 13:32N 36°09' W 005°26'0 0.0
2015-Jul-01 12:32N 36°09' W 005°26'0 0.0
2015-Jul-01 05:32N 36°09' W 005°26'0 0.0
2015-Jul-01 04:29N 36°09' W 005°26'3 3.0
2015-Jul-01 03:34N 36°07' W 005°23'6 5.5
2015-Jul-01 02:34N 36°02' W 005°21'5 5.3
2015-Jul-01 01:33N 35°58' W 005°25'6 5.4
2015-Jul-01 00:31N 35°54' W 005°30'9 0.5
2015-Jun-30 04:23N 35°54' W 005°41'29 1.2
2015-Jun-29 04:27N 36°04' W 006°15'0 0.0
2015-Jun-29 03:30N 36°04' W 006°15'0 0.0
2015-Jun-29 02:12N 36°04' W 006°15'0 0.0
2015-Jun-28 22:30N 36°04' W 006°15'0 0.0
2015-Jun-28 18:33N 36°04' W 006°15'0 0.0
2015-Jun-28 17:09N 36°04' W 006°15'0 0.0
2015-Jun-28 15:12N 36°04' W 006°15'0 0.0
2015-Jun-28 14:27N 36°04' W 006°15'0 0.0
2015-Jun-28 13:30N 36°04' W 006°15'0 0.0
2015-Jun-28 12:30N 36°04' W 006°15'0 0.1
2015-Jun-28 11:03N 36°04' W 006°15'0 0.0
2015-Jun-28 09:15N 36°04' W 006°15'0 0.1
2015-Jun-28 08:30N 36°04' W 006°15'  
2015-Jun-25 16:33N 34°35' W 007°51'7 7.4
2015-Jun-25 15:33N 34°30' W 007°58'  

Dump ship's entire track history